Date,TemperatureHighF,TemperatureAvgF,TemperatureLowF,DewpointHighF,DewpointAvgF,DewpointLowF,HumidityHigh,HumidityAvg,HumidityLow,PressureMaxIn,PressureMinIn,WindSpeedMaxMPH,WindSpeedAvgMPH,GustSpeedMaxMPH,PrecipitationSumIn
2013-3-1,68.7,38.9,24.1,41.1,30.5,23.1,98,77,35,30.45,30.27,6,2,8,0.00
2013-3-2,65.1,40.9,27.0,41.2,29.7,25.9,98,71,27,30.33,30.09,17,3,20,0.00
2013-3-3,49.1,39.5,31.6,43.5,37.1,31.1,98,92,63,30.12,29.98,5,1,7,0.00
2013-3-4,59.2,39.6,31.1,40.0,33.2,30.4,98,82,38,30.12,29.95,9,2,12,0.00
2013-3-5,56.3,43.2,29.5,34.2,30.0,26.1,98,62,42,30.01,29.71,23,6,33,0.00
2013-3-6,38.1,33.5,31.3,32.9,32.0,29.7,98,94,76,29.77,29.71,14,2,22,0.00
2013-3-7,45.9,36.3,30.7,32.2,29.6,24.9,98,78,51,30.39,29.83,7,2,8,0.00
2013-3-8,50.2,35.7,28.4,33.6,29.4,24.3,98,81,39,29.98,29.80,9,2,11,0.00
2013-3-9,60.8,36.5,25.3,33.1,19.5,-9.6,98,66,6,30.36,29.98,7,1,8,0.00
2013-3-10,61.5,36.7,19.2,26.8,17.3,-9.5,96,59,5,30.39,30.24,9,2,13,0.00
2013-3-11,68.7,40.1,22.8,37.2,21.8,-11.2,91,61,4,30.30,30.12,7,2,8,0.00
2013-3-12,72.1,42.6,24.4,38.1,26.3,-9.5,98,68,4,30.24,30.09,6,2,6,0.00
2013-3-13,77.0,44.4,26.2,43.3,30.6,-12.7,98,70,3,30.24,30.15,12,2,15,0.00
2013-3-14,72.7,43.8,28.9,42.5,30.2,-12.0,98,69,3,30.24,30.15,17,3,23,0.00
2013-3-15,68.4,42.6,26.2,38.3,30.0,20.4,97,68,23,30.18,30.04,14,2,17,0.00
2013-3-16,70.3,42.8,24.6,38.8,28.2,23.6,98,63,26,30.15,29.98,16,3,17,0.00
2013-3-17,70.5,41.5,23.4,33.8,21.9,-12.8,94,58,4,30.09,30.01,11,2,13,0.00
2013-3-18,65.1,41.3,22.5,32.6,22.1,-11.1,95,59,4,30.12,29.98,10,2,15,0.00
2013-3-19,64.4,45.6,36.0,41.2,35.8,28.1,97,71,40,30.15,30.01,9,2,15,0.04
2013-3-20,51.8,43.0,37.0,45.7,38.5,32.6,98,85,60,30.04,29.92,14,3,22,0.84
2013-3-21,60.4,41.2,26.8,37.4,30.7,23.4,98,70,37,30.06,29.95,18,2,24,0.00
2013-3-22,60.4,33.9,18.1,23.4,11.5,-10.4,94,55,6,30.15,29.98,8,2,10,0.00
2013-3-23,65.7,37.6,19.6,28.1,17.2,-11.2,82,54,4,30.18,29.98,11,2,13,0.00
2013-3-24,70.7,41.2,23.9,39.4,28.1,21.4,97,65,28,30.15,29.98,12,3,19,0.00
2013-3-25,71.4,43.1,25.0,38.4,26.4,-12.3,98,62,4,30.04,29.92,21,4,27,0.00
2013-3-26,62.2,42.6,28.9,41.8,32.1,23.6,93,69,45,29.98,29.92,14,2,17,0.00
2013-3-27,62.8,43.5,30.2,39.2,33.9,29.1,98,73,40,30.04,29.92,14,3,20,0.00
2013-3-28,62.8,42.8,33.1,44.4,36.1,32.3,98,81,39,30.15,29.98,14,2,17,0.00
2013-3-29,71.8,44.9,28.0,42.8,34.6,27.4,98,74,25,30.21,30.09,10,2,11,0.00
2013-3-30,76.6,47.6,29.1,44.8,36.7,28.6,98,73,26,30.18,30.01,13,2,20,0.00
2013-3-31,54.3,45.1,37.9,44.7,38.7,33.2,98,81,51,30.09,29.98,10,2,13,0.08